Time,TemperatureF,DewpointF,PressureIn,WindDirection,WindDirectionDegrees,WindSpeedMPH,WindSpeedGustMPH,Humidity,HourlyPrecipIn,Conditions,Clouds,dailyrainin,SoftwareType,DateUTC
2013-10-15 12:00:00,61.0,-99.9,30.09,SE,130,17.0,-999.0,-999,-99.99,,,-99.99,,2013-10-15 16:00:00,
2013-10-15 12:23:00,61.0,-99.9,30.09,SE,130,17.0,-999.0,-999,-99.99,,,-99.99,,2013-10-15 16:23:00,
2013-10-15 12:33:00,61.0,-99.9,30.09,SE,130,17.0,-999.0,-999,-99.99,,,-99.99,,2013-10-15 16:33:00,
2013-10-15 12:43:00,61.0,-99.9,30.09,SE,130,17.0,-999.0,-999,-99.99,,,-99.99,,2013-10-15 16:43:00,
2013-10-15 12:53:00,61.0,-99.9,30.09,SE,130,17.0,-999.0,-999,-99.99,,,-99.99,,2013-10-15 16:53:00,
2013-10-15 13:00:00,61.0,-99.9,30.07,SE,130,18.0,-999.0,-999,-99.99,,,-99.99,,2013-10-15 17:00:00,
2013-10-15 13:22:00,61.0,-99.9,30.07,SE,130,18.0,-999.0,-999,-99.99,,,-99.99,,2013-10-15 17:22:00,
2013-10-15 13:33:00,61.0,-99.9,30.07,SE,130,18.0,-999.0,-999,-99.99,,,-99.99,,2013-10-15 17:33:00,
2013-10-15 13:43:00,61.0,-99.9,30.07,SE,130,18.0,-999.0,-999,-99.99,,,-99.99,,2013-10-15 17:43:00,
2013-10-15 13:53:00,61.0,-99.9,30.07,SE,130,18.0,-999.0,-999,-99.99,,,-99.99,,2013-10-15 17:53:00,
2013-10-15 14:00:00,61.0,-99.9,30.01,SE,130,18.0,-999.0,-999,-99.99,,,-99.99,,2013-10-15 18:00:00,
2013-10-15 14:42:00,61.0,-99.9,30.01,SE,130,18.0,-999.0,-999,-99.99,,,-99.99,,2013-10-15 18:42:00,
2013-10-15 14:52:00,61.0,-99.9,30.01,SE,130,18.0,-999.0,-999,-99.99,,,-99.99,,2013-10-15 18:52:00,
2013-10-15 15:00:00,60.0,-99.9,30.09,SSE,160,18.0,-999.0,-999,-99.99,,,-99.99,,2013-10-15 19:00:00,
2013-10-15 15:22:00,60.0,-99.9,30.09,SSE,160,18.0,-999.0,-999,-99.99,,,-99.99,,2013-10-15 19:22:00,
2013-10-15 15:32:00,60.0,-99.9,30.09,SSE,160,18.0,-999.0,-999,-99.99,,,-99.99,,2013-10-15 19:32:00,
2013-10-15 15:42:00,60.0,-99.9,30.09,SSE,160,18.0,-999.0,-999,-99.99,,,-99.99,,2013-10-15 19:42:00,
2013-10-15 15:52:00,60.0,-99.9,30.09,SSE,160,18.0,-999.0,-999,-99.99,,,-99.99,,2013-10-15 19:52:00,
2013-10-15 16:00:00,68.0,-99.9,29.97,SSE,160,18.0,-999.0,-999,-99.99,,,-99.99,,2013-10-15 20:00:00,
2013-10-15 16:42:00,68.0,-99.9,29.97,SSE,160,18.0,-999.0,-999,-99.99,,,-99.99,,2013-10-15 20:42:00,
2013-10-15 16:52:00,68.0,-99.9,29.97,SSE,160,18.0,-999.0,-999,-99.99,,,-99.99,,2013-10-15 20:52:00,
2013-10-15 17:00:00,68.0,-99.9,29.93,SSE,160,17.0,-999.0,-999,-99.99,,,-99.99,,2013-10-15 21:00:00,
2013-10-15 17:44:00,68.0,-99.9,29.93,SSE,160,17.0,-999.0,-999,-99.99,,,-99.99,,2013-10-15 21:44:00,
2013-10-15 17:54:00,68.0,-99.9,29.93,SSE,160,17.0,-999.0,-999,-99.99,,,-99.99,,2013-10-15 21:54:00,
2013-10-15 18:00:00,67.0,-99.9,29.91,SSE,150,22.0,-999.0,-999,-99.99,,,-99.99,,2013-10-15 22:00:00,
2013-10-15 18:43:00,67.0,-99.9,29.91,SSE,150,22.0,-999.0,-999,-99.99,,,-99.99,,2013-10-15 22:43:00,
2013-10-15 18:54:00,67.0,-99.9,29.91,SSE,150,22.0,-999.0,-999,-99.99,,,-99.99,,2013-10-15 22:54:00,
2013-10-15 20:00:00,66.0,-99.9,29.86,SSE,160,25.0,-999.0,-999,-99.99,,,-99.99,,2013-10-16 00:00:00,
2013-10-15 20:42:00,66.0,-99.9,29.86,SSE,160,25.0,-999.0,-999,-99.99,,,-99.99,,2013-10-16 00:42:00,
2013-10-15 20:52:00,66.0,-99.9,29.86,SSE,160,25.0,-999.0,-999,-99.99,,,-99.99,,2013-10-16 00:52:00,
2013-10-15 21:00:00,66.0,-99.9,29.84,SSE,160,25.0,-999.0,-999,-99.99,,,-99.99,,2013-10-16 01:00:00,
2013-10-15 21:22:00,66.0,-99.9,29.84,SSE,160,25.0,-999.0,-999,-99.99,,,-99.99,,2013-10-16 01:22:00,
2013-10-15 21:32:00,66.0,-99.9,29.84,SSE,160,25.0,-999.0,-999,-99.99,,,-99.99,,2013-10-16 01:32:00,
2013-10-15 21:42:00,66.0,-99.9,29.84,SSE,160,25.0,-999.0,-999,-99.99,,,-99.99,,2013-10-16 01:42:00,
2013-10-15 21:53:00,66.0,-99.9,29.84,SSE,160,25.0,-999.0,-999,-99.99,,,-99.99,,2013-10-16 01:53:00,
2013-10-15 22:00:00,68.0,-99.9,29.80,SSE,150,16.0,-999.0,-999,-99.99,,,-99.99,,2013-10-16 02:00:00,
2013-10-15 22:43:00,68.0,-99.9,29.80,SSE,150,16.0,-999.0,-999,-99.99,,,-99.99,,2013-10-16 02:43:00,
2013-10-15 22:52:00,68.0,-99.9,29.80,SSE,150,16.0,-999.0,-999,-99.99,,,-99.99,,2013-10-16 02:52:00,